• In Uzbekistan
  • List of Countries
  • For 7 days
  • Water Temperature
  • Satellite Maps
  • Weather Map
  • Weather Widgets
  • user-avatar
    Login

    Hourly Weather Bali

    Today, 12 December, Tuesday

    Time Temperature Precipitation Wind Pressure Humidity
    00:00 +25°C° 0 mm 1 mps 760 mmHg 69%
    01:00 +25°C° 0 mm 1 mps 760 mmHg 70%
    02:00 +25°C° 0 mm 1 mps 760 mmHg 71%
    03:00 +24°C° 0 mm 1 mps 759 mmHg 72%
    04:00 +24°C° 0 mm 1 mps 760 mmHg 72%
    05:00 +24°C° 0 mm 1 mps 760 mmHg 73%
    06:00 +23°C° 0 mm 1 mps 760 mmHg 79%
    07:00 +24°C° 0 mm 1 mps 760 mmHg 74%
    08:00 +25°C° 0 mm 1 mps 761 mmHg 70%
    09:00 +26°C° 0 mm 1 mps 761 mmHg 65%
    10:00 +28°C° 0 mm 1 mps 761 mmHg 60%
    11:00 +29°C° 0 mm 2 mps 760 mmHg 54%
    12:00 +30°C° 0 mm 2 mps 760 mmHg 49%
    13:00 +31°C° 0 mm 2 mps 760 mmHg 46%
    14:00 +31°C° 0 mm 2 mps 759 mmHg 43%
    15:00 +31°C° 0 mm 2 mps 759 mmHg 41%
    16:00 +30°C° 0 mm 2 mps 759 mmHg 44%
    17:00 +29°C° 0 mm 1 mps 759 mmHg 47%
    18:00 +28°C° 0 mm 1 mps 759 mmHg 50%
    19:00 +27°C° 0 mm 1 mps 759 mmHg 52%
    20:00 +27°C° 0 mm 1 mps 760 mmHg 53%
    21:00 +24°C° 0 mm 0 mps 760 mmHg 55%
    22:00 +26°C° 0 mm 1 mps 760 mmHg 56%
    23:00 +26°C° 0 mm 1 mps 760 mmHg 58%

    Tomorrow, 13 December, Wednesday

    Time Temperature Precipitation Wind Pressure Humidity
    00:00 +25°C° 0 mm 1 mps 760 mmHg 60%
    01:00 +25°C° 0 mm 1 mps 760 mmHg 61%
    02:00 +24°C° 0 mm 1 mps 760 mmHg 63%
    03:00 +24°C° 0 mm 1 mps 760 mmHg 65%
    04:00 +23°C° 0 mm 1 mps 760 mmHg 66%
    05:00 +23°C° 0 mm 1 mps 760 mmHg 67%
    06:00 +23°C° 0 mm 1 mps 760 mmHg 68%
    07:00 +24°C° 0 mm 1 mps 760 mmHg 64%
    08:00 +25°C° 0 mm 1 mps 761 mmHg 59%
    09:00 +27°C° 0 mm 1 mps 762 mmHg 55%
    10:00 +28°C° 0 mm 1 mps 761 mmHg 50%
    11:00 +29°C° 0 mm 1 mps 761 mmHg 44%
    12:00 +31°C° 0 mm 2 mps 761 mmHg 39%
    13:00 +31°C° 0 mm 2 mps 760 mmHg 36%
    14:00 +32°C° 0 mm 2 mps 759 mmHg 34%
    15:00 +32°C° 0 mm 2 mps 759 mmHg 31%
    16:00 +31°C° 0 mm 2 mps 759 mmHg 34%
    17:00 +30°C° 0 mm 2 mps 759 mmHg 37%
    18:00 +28°C° 0 mm 1 mps 759 mmHg 40%
    19:00 +28°C° 0 mm 1 mps 760 mmHg 41%
    20:00 +27°C° 0 mm 1 mps 760 mmHg 42%
    21:00 +26°C° 0 mm 1 mps 761 mmHg 43%
    22:00 +26°C° 0 mm 1 mps 760 mmHg 44%
    23:00 +25°C° 0 mm 1 mps 760 mmHg 45%

    Day after tomorrow, 14 December, Thursday

    Time Temperature Precipitation Wind Pressure Humidity
    00:00 +25°C° 0 mm 1 mps 760 mmHg 47%
    01:00 +24°C° 0 mm 1 mps 760 mmHg 48%
    02:00 +24°C° 0 mm 1 mps 760 mmHg 49%
    03:00 +24°C° 0 mm 1 mps 760 mmHg 50%
    04:00 +23°C° 0 mm 1 mps 760 mmHg 51%
    05:00 +23°C° 0 mm 1 mps 760 mmHg 51%
    06:00 +23°C° 0 mm 1 mps 760 mmHg 52%
    07:00 +24°C° 0 mm 1 mps 761 mmHg 49%
    08:00 +25°C° 0 mm 2 mps 762 mmHg 46%
    09:00 +27°C° 0 mm 2 mps 762 mmHg 43%
    10:00 +28°C° 0 mm 2 mps 762 mmHg 40%
    11:00 +30°C° 0 mm 3 mps 762 mmHg 36%
    12:00 +31°C° 0 mm 3 mps 761 mmHg 32%
    13:00 +31°C° 0 mm 3 mps 761 mmHg 32%
    14:00 +33°C° 0 mm 3 mps 760 mmHg 31%
    15:00 +33°C° 0 mm 3 mps 759 mmHg 30%
    16:00 +31°C° 0 mm 2 mps 760 mmHg 33%
    17:00 +29°C° 0 mm 2 mps 760 mmHg 36%
    18:00 +28°C° 0 mm 1 mps 760 mmHg 39%
    19:00 +27°C° 0 mm 1 mps 761 mmHg 40%
    20:00 +27°C° 0 mm 1 mps 761 mmHg 41%
    21:00 +24°C° 0 mm 0 mps 762 mmHg 42%
    22:00 +26°C° 0 mm 1 mps 761 mmHg 44%
    23:00 +25°C° 0 mm 1 mps 761 mmHg 45%

    15 December, Friday

    Time Temperature Precipitation Wind Pressure Humidity
    00:00 +24°C° 0 mm 2 mps 761 mmHg 47%
    01:00 +24°C° 0 mm 2 mps 761 mmHg 48%
    02:00 +24°C° 0 mm 2 mps 761 mmHg 49%
    03:00 +23°C° 0 mm 2 mps 760 mmHg 51%
    04:00 +23°C° 0 mm 2 mps 760 mmHg 52%
    05:00 +21°C° 0 mm 2 mps 761 mmHg 53%
    06:00 +21°C° 0 mm 2 mps 761 mmHg 54%
    07:00 +23°C° 0 mm 2 mps 761 mmHg 51%
    08:00 +25°C° 0 mm 3 mps 762 mmHg 47%
    09:00 +26°C° 0 mm 3 mps 763 mmHg 44%
    10:00 +27°C° 0 mm 4 mps 762 mmHg 38%
    11:00 +29°C° 0 mm 4 mps 762 mmHg 32%
    12:00 +30°C° 0 mm 5 mps 762 mmHg 27%
    13:00 +32°C° 0 mm 5 mps 761 mmHg 26%
    14:00 +32°C° 0 mm 5 mps 761 mmHg 25%
    15:00 +32°C° 0 mm 5 mps 760 mmHg 24%
    16:00 +29°C° 0 mm 4 mps 760 mmHg 27%
    17:00 +28°C° 0 mm 3 mps 760 mmHg 29%
    18:00 +26°C° 0 mm 2 mps 761 mmHg 32%
    19:00 +26°C° 0 mm 2 mps 761 mmHg 33%
    20:00 +25°C° 0 mm 2 mps 762 mmHg 33%
    21:00 +24°C° 0 mm 2 mps 763 mmHg 34%
    22:00 +24°C° 0 mm 2 mps 763 mmHg 36%
    23:00 +23°C° 0 mm 2 mps 762 mmHg 37%

    16 December, Saturday

    Time Temperature Precipitation Wind Pressure Humidity
    00:00 +21°C° 0 mm 2 mps 762 mmHg 39%
    01:00 +21°C° 0 mm 2 mps 762 mmHg 41%
    02:00 +21°C° 0 mm 2 mps 762 mmHg 43%
    03:00 +20°C° 0 mm 2 mps 761 mmHg 45%
    04:00 +20°C° 0 mm 2 mps 762 mmHg 46%
    05:00 +19°C° 0 mm 2 mps 762 mmHg 48%
    06:00 +19°C° 0 mm 2 mps 762 mmHg 49%
    07:00 +20°C° 0 mm 3 mps 763 mmHg 46%
    08:00 +22°C° 0 mm 3 mps 763 mmHg 42%
    09:00 +23°C° 0 mm 4 mps 764 mmHg 39%
    10:00 +26°C° 0 mm 4 mps 763 mmHg 34%
    11:00 +27°C° 0 mm 5 mps 763 mmHg 29%
    12:00 +29°C° 0 mm 5 mps 762 mmHg 23%
    13:00 +29°C° 0 mm 5 mps 762 mmHg 23%
    14:00 +29°C° 0 mm 5 mps 761 mmHg 22%
    15:00 +30°C° 0 mm 5 mps 761 mmHg 21%
    16:00 +28°C° 0 mm 4 mps 761 mmHg 24%
    17:00 +26°C° 0 mm 3 mps 761 mmHg 26%
    18:00 +25°C° 0 mm 2 mps 761 mmHg 29%
    19:00 +24°C° 0 mm 2 mps 762 mmHg 30%
    20:00 +23°C° 0 mm 2 mps 762 mmHg 30%
    21:00 +23°C° 0 mm 2 mps 763 mmHg 31%
    22:00 +21°C° 0 mm 2 mps 763 mmHg 32%
    23:00 +20°C° 0 mm 2 mps 763 mmHg 33%

    17 December, Sunday

    Time Temperature Precipitation Wind Pressure Humidity
    00:00 +20°C° 0 mm 2 mps 763 mmHg 34%
    01:00 +19°C° 0 mm 2 mps 762 mmHg 35%
    02:00 +19°C° 0 mm 2 mps 762 mmHg 36%
    03:00 +18°C° 0 mm 2 mps 762 mmHg 37%
    04:00 +18°C° 0 mm 2 mps 762 mmHg 38%
    05:00 +18°C° 0 mm 2 mps 762 mmHg 39%
    06:00 +17°C° 0 mm 2 mps 762 mmHg 40%
    07:00 +18°C° 0 mm 2 mps 763 mmHg 38%
    08:00 +20°C° 0 mm 3 mps 763 mmHg 36%
    09:00 +21°C° 0 mm 3 mps 764 mmHg 34%
    10:00 +24°C° 0 mm 3 mps 764 mmHg 31%
    11:00 +25°C° 0 mm 3 mps 763 mmHg 28%
    12:00 +27°C° 0 mm 3 mps 763 mmHg 25%
    13:00 +28°C° 0 mm 3 mps 762 mmHg 24%
    14:00 +28°C° 0 mm 3 mps 762 mmHg 24%
    15:00 +29°C° 0 mm 3 mps 761 mmHg 23%
    16:00 +27°C° 0 mm 3 mps 761 mmHg 27%
    17:00 +26°C° 0 mm 2 mps 761 mmHg 30%
    18:00 +24°C° 0 mm 2 mps 762 mmHg 34%
    19:00 +24°C° 0 mm 2 mps 762 mmHg 35%
    20:00 +23°C° 0 mm 2 mps 762 mmHg 37%
    21:00 +22°C° 0 mm 1 mps 763 mmHg 38%
    22:00 +21°C° 0 mm 2 mps 763 mmHg 39%
    23:00 +20°C° 0 mm 2 mps 763 mmHg 41%
    Show more